,,Stat6,,Stat2,,Stat8,,Stat9,,Stat10,,Wind1,,Wind1,
time,status,PA1M_AVG,status,PR1M_SUM,status,RH1M_AVG,status,SR1M_AVG,status,TA1M_AVG,status,W1dAve1m,status,W1sAve1m,
2005-11-30, 00:00:00,VALID,916.804,VALID,0,VALID,96.998,VALID,-0.0339617,VALID,19.7852,VALID,241,VALID,0.0673363,
2005-11-30, 00:01:00,VALID,916.792,VALID,0,VALID,97.0514,VALID,0,VALID,19.7944,VALID,241,VALID,0.0962936,
2005-11-30, 00:02:00,VALID,916.78,VALID,0,VALID,97.2752,VALID,0,VALID,19.8173,VALID,241,VALID,0.00353423,
2005-11-30, 00:03:00,VALID,916.768,VALID,0,VALID,97.4164,VALID,0,VALID,19.824,VALID,241,VALID,0.106136,
2005-11-30, 00:04:00,VALID,916.763,VALID,0,VALID,97.2549,VALID,-0.0169808,VALID,19.8011,VALID,241,VALID,0.0682292,
2005-11-30, 00:05:00,VALID,916.737,VALID,0,VALID,97.3146,VALID,0,VALID,19.7817,VALID,241,VALID,0,
2005-11-30, 00:06:00,VALID,916.73,VALID,0,VALID,97.1239,VALID,0.0169808,VALID,19.7686,VALID,241,VALID,0.121838,
2005-11-30, 00:07:00,VALID,916.731,VALID,0,VALID,97.115,VALID,-0.0339617,VALID,19.7594,VALID,241,VALID,0.081936,
2005-11-30, 00:08:00,VALID,916.734,VALID,0,VALID,97.2867,VALID,0,VALID,19.7556,VALID,241,VALID,0.0452009,
2005-11-30, 00:09:00,VALID,916.732,VALID,0,VALID,97.3286,VALID,0,VALID,19.7596,VALID,241,VALID,0.122159,
2005-11-30, 00:10:00,VALID,916.73,VALID,0,VALID,97.1887,VALID,0,VALID,19.7427,VALID,241,VALID,0.0472222,
2005-11-30, 00:11:00,VALID,916.726,VALID,0,VALID,97.3121,VALID,0,VALID,19.7586,VALID,241,VALID,0.112827,
2005-11-30, 00:12:00,VALID,916.708,VALID,0,VALID,97.6567,VALID,0.0169808,VALID,19.785,VALID,242,VALID,0.0713778,
2005-11-30, 00:13:00,VALID,916.697,VALID,0,VALID,97.9593,VALID,0,VALID,19.7885,VALID,242,VALID,0.249822,
2005-11-30, 00:14:00,VALID,916.684,VALID,0,VALID,98.0967,VALID,0,VALID,19.7785,VALID,242,VALID,0.225898,
2005-11-30, 00:15:00,VALID,916.666,VALID,0,VALID,98,VALID,0.0169808,VALID,19.7266,VALID,242,VALID,0.26456,
2005-11-30, 00:16:00,VALID,916.653,VALID,0,VALID,98.262,VALID,0,VALID,19.701,VALID,242,VALID,0.244606,
2005-11-30, 00:17:00,VALID,916.643,VALID,0,VALID,98.487,VALID,0,VALID,19.6918,VALID,242,VALID,0.0256177,
2005-11-30, 00:18:00,VALID,916.636,VALID,0,VALID,98.6282,VALID,-0.0169808,VALID,19.6843,VALID,274,VALID,0.333757,
2005-11-30, 00:19:00,VALID,916.631,VALID,0,VALID,98.4705,VALID,0.0339617,VALID,19.648,VALID,9,VALID,0.77381,
2005-11-30, 00:20:00,VALID,916.638,VALID,0,VALID,98.6002,VALID,0.0169808,VALID,19.6321,VALID,12,VALID,0.827381,
2005-11-30, 00:21:00,VALID,916.637,VALID,0,VALID,98.5659,VALID,0.0169808,VALID,19.6095,VALID,12,VALID,0.519077,
2005-11-30, 00:22:00,VALID,916.644,VALID,0,VALID,98.6752,VALID,0.0169808,VALID,19.5938,VALID,16,VALID,0.691797,
2005-11-30, 00:23:00,VALID,916.648,VALID,0,VALID,98.7147,VALID,0.0169808,VALID,19.5672,VALID,16,VALID,0.532584,
2005-11-30, 00:24:00,VALID,916.638,VALID,0,VALID,98.8812,VALID,0,VALID,19.5449,VALID,17,VALID,0.377663,
2005-11-30, 00:25:00,VALID,916.637,VALID,0,VALID,99.0707,VALID,0,VALID,19.5521,VALID,17,VALID,0.0732887,
2005-11-30, 00:26:00,VALID,916.63,VALID,0,VALID,99.2716,VALID,0,VALID,19.5511,VALID,17,VALID,0.0221657,
2005-11-30, 00:27:00,VALID,916.623,VALID,0,VALID,99.4102,VALID,0.0339617,VALID,19.5613,VALID,17,VALID,0.24721,
2005-11-30, 00:28:00,VALID,916.604,VALID,0,VALID,99.5094,VALID,0.0339617,VALID,19.5615,VALID,17,VALID,0.24929,
2005-11-30, 00:29:00,VALID,916.578,VALID,0,VALID,99.4293,VALID,0,VALID,19.5379,VALID,17,VALID,0.0306784,
2005-11-30, 00:30:00,VALID,916.539,VALID,0,VALID,99.3606,VALID,0,VALID,19.5255,VALID,17,VALID,0,
2005-11-30, 00:31:00,VALID,916.503,VALID,0,VALID,99.4814,VALID,0,VALID,19.5255,VALID,17,VALID,0,
2005-11-30, 00:32:00,VALID,916.469,VALID,0,VALID,99.4916,VALID,0,VALID,19.5222,VALID,17,VALID,0,
2005-11-30, 00:33:00,VALID,916.442,VALID,0,VALID,99.5641,VALID,0,VALID,19.522,VALID,17,VALID,0,
2005-11-30, 00:34:00,VALID,916.398,VALID,0,VALID,99.4115,VALID,0,VALID,19.5058,VALID,17,VALID,0.000190549,
2005-11-30, 00:35:00,VALID,916.39,VALID,0,VALID,99.3772,VALID,0.0339617,VALID,19.4897,VALID,17,VALID,0.144717,
2005-11-30, 00:36:00,VALID,916.394,VALID,0,VALID,99.5132,VALID,0.0169808,VALID,19.477,VALID,17,VALID,0.000211149,
2005-11-30, 00:37:00,VALID,916.36,VALID,0,VALID,99.723,VALID,0.0339617,VALID,19.4869,VALID,17,VALID,0.298363,
2005-11-30, 00:38:00,VALID,916.334,VALID,0,VALID,99.8896,VALID,0.0509425,VALID,19.5026,VALID,17,VALID,0.160633,
2005-11-30, 00:39:00,VALID,916.331,VALID,0,VALID,99.9519,VALID,0.0339617,VALID,19.5061,VALID,17,VALID,0.0793403,
2005-11-30, 00:40:00,VALID,916.317,VALID,0,VALID,99.9519,VALID,0.0169808,VALID,19.4991,VALID,17,VALID,0,
2005-11-30, 00:41:00,VALID,916.297,VALID,0,VALID,99.8642,VALID,0.0169808,VALID,19.4899,VALID,17,VALID,0,
2005-11-30, 00:42:00,VALID,916.26,VALID,0,VALID,99.7675,VALID,0,VALID,19.477,VALID,17,VALID,0.0863009,
2005-11-30, 00:43:00,VALID,916.22,VALID,0,VALID,99.7332,VALID,0.0169808,VALID,19.4477,VALID,17,VALID,0.00381541,
2005-11-30, 00:44:00,VALID,916.17,VALID,0,VALID,99.8108,VALID,0,VALID,19.4447,VALID,17,VALID,0,
2005-11-30, 00:45:00,VALID,916.136,VALID,0,VALID,99.8896,VALID,0.0169808,VALID,19.4248,VALID,17,VALID,0,
2005-11-30, 00:46:00,VALID,916.094,VALID,0,VALID,99.9964,VALID,0,VALID,19.4347,VALID,17,VALID,0,
2005-11-30, 00:47:00,VALID,916.081,VALID,0,VALID,99.9939,VALID,0.0509425,VALID,19.438,VALID,17,VALID,0,
2005-11-30, 00:48:00,VALID,916.06,VALID,0,VALID,99.9977,VALID,0.0509425,VALID,19.435,VALID,17,VALID,0,
2005-11-30, 00:49:00,VALID,916.038,VALID,0,VALID,100,VALID,0.0339617,VALID,19.438,VALID,17,VALID,0,
2005-11-30, 00:50:00,VALID,916.022,VALID,0,VALID,100,VALID,0.0169808,VALID,19.4318,VALID,17,VALID,0,
2005-11-30, 00:51:00,VALID,916.002,VALID,0,VALID,100,VALID,0.0339617,VALID,19.435,VALID,17,VALID,0,
2005-11-30, 00:52:00,VALID,915.974,VALID,0,VALID,99.972,VALID,0,VALID,19.4255,VALID,17,VALID,0,
2005-11-30, 00:53:00,VALID,915.956,VALID,0,VALID,99.9418,VALID,0,VALID,19.4091,VALID,17,VALID,0,
2005-11-30, 00:54:00,VALID,915.934,VALID,0,VALID,99.9644,VALID,0.0169808,VALID,19.3927,VALID,17,VALID,0,
2005-11-30, 00:55:00,VALID,915.913,VALID,0,VALID,99.9367,VALID,0.0169808,VALID,19.3898,VALID,17,VALID,0,
2005-11-30, 00:56:00,VALID,915.885,VALID,0,VALID,99.9049,VALID,0,VALID,19.3833,VALID,17,VALID,0.0216206,
2005-11-30, 00:57:00,VALID,915.877,VALID,0,VALID,99.9667,VALID,0.0339617,VALID,19.3835,VALID,17,VALID,0.252204,
2005-11-30, 00:58:00,VALID,915.853,VALID,0,VALID,99.9819,VALID,0,VALID,19.3902,VALID,17,VALID,0.0186012,
2005-11-30, 00:59:00,VALID,915.835,VALID,0,VALID,99.9697,VALID,0.0169808,VALID,19.3801,VALID,17,VALID,0,
2005-11-30, 01:00:00,VALID,915.807,VALID,0,VALID,99.8807,VALID,0,VALID,19.3803,VALID,17,VALID,0.222747,
2005-11-30, 01:01:00,VALID,915.798,VALID,0,VALID,99.8489,VALID,0,VALID,19.3711,VALID,17,VALID,0.17697,
2005-11-30, 01:02:00,VALID,915.779,VALID,0,VALID,99.7714,VALID,0,VALID,19.3547,VALID,9,VALID,0.393581,
2005-11-30, 01:03:00,VALID,915.772,VALID,0,VALID,99.7052,VALID,0,VALID,19.3217,VALID,5,VALID,0.0785156,
2005-11-30, 01:04:00,VALID,915.762,VALID,0,VALID,99.7065,VALID,0,VALID,19.3219,VALID,5,VALID,0.0169271,
2005-11-30, 01:05:00,VALID,915.733,VALID,0,VALID,99.5832,VALID,0,VALID,19.3323,VALID,356,VALID,0.569531,
2005-11-30, 01:06:00,VALID,915.695,VALID,0,VALID,99.3034,VALID,0.0169808,VALID,19.3383,VALID,13,VALID,0.820811,
2005-11-30, 01:07:00,VALID,915.675,VALID,0,VALID,99.0402,VALID,0,VALID,19.3902,VALID,20,VALID,0.511265,
2005-11-30, 01:08:00,VALID,915.66,VALID,0,VALID,98.7617,VALID,0.0169808,VALID,19.4094,VALID,23,VALID,0.434126,
2005-11-30, 01:09:00,VALID,915.629,VALID,0,VALID,98.5252,VALID,0.0169808,VALID,19.4064,VALID,22,VALID,0.145597,
2005-11-30, 01:10:00,VALID,915.58,VALID,0,VALID,98.4883,VALID,0.0169808,VALID,19.3738,VALID,22,VALID,0.229687,
2005-11-30, 01:11:00,VALID,915.535,VALID,0,VALID,98.5773,VALID,0,VALID,19.3614,VALID,349,VALID,0.632011,
2005-11-30, 01:12:00,VALID,915.503,VALID,0,VALID,98.6841,VALID,0.0339617,VALID,19.3321,VALID,353,VALID,0.548781,
2005-11-30, 01:13:00,VALID,915.466,VALID,0,VALID,98.8622,VALID,0,VALID,19.3221,VALID,3,VALID,0.0837891,
2005-11-30, 01:14:00,VALID,915.416,VALID,0,VALID,98.8825,VALID,0.0169808,VALID,19.3095,VALID,3,VALID,0.283067,
2005-11-30, 01:15:00,VALID,915.383,VALID,0,VALID,98.9486,VALID,0,VALID,19.3062,VALID,3,VALID,0.603277,
2005-11-30, 01:16:00,VALID,915.347,VALID,0,VALID,99.0237,VALID,0.0339617,VALID,19.2965,VALID,355,VALID,0.568452,
2005-11-30, 01:17:00,VALID,915.316,VALID,0,VALID,99.0682,VALID,0.0169808,VALID,19.3127,VALID,7,VALID,0.637718,
2005-11-30, 01:18:00,VALID,915.296,VALID,0,VALID,98.9423,VALID,-0.0509425,VALID,19.3209,VALID,3,VALID,0.858507,
2005-11-30, 01:19:00,VALID,915.28,VALID,0,VALID,98.9118,VALID,-0.0849042,VALID,19.3142,VALID,5,VALID,0.427024,
2005-11-30, 01:20:00,VALID,915.257,VALID,0,VALID,98.7884,VALID,-0.0849042,VALID,19.3109,VALID,358,VALID,0.164621,
2005-11-30, 01:21:00,VALID,915.211,VALID,0,VALID,98.8494,VALID,-0.0679233,VALID,19.3042,VALID,358,VALID,0.175037,
2005-11-30, 01:22:00,VALID,915.194,VALID,0,VALID,98.9792,VALID,-0.0849042,VALID,19.3047,VALID,358,VALID,0.158612,
2005-11-30, 01:23:00,VALID,915.158,VALID,0,VALID,99.0771,VALID,-0.0849042,VALID,19.3146,VALID,358,VALID,0.363653,
2005-11-30, 01:24:00,VALID,915.14,VALID,0,VALID,99.2398,VALID,-0.101885,VALID,19.2843,VALID,358,VALID,0.463118,
2005-11-30, 01:25:00,VALID,915.115,VALID,0,VALID,99.3365,VALID,-0.0849042,VALID,19.2786,VALID,15,VALID,0.663885,
2005-11-30, 01:26:00,VALID,915.088,VALID,0,VALID,99.4865,VALID,-0.101885,VALID,19.2627,VALID,14,VALID,0.530523,
2005-11-30, 01:27:00,VALID,915.077,VALID,0,VALID,99.6239,VALID,-0.101885,VALID,19.2565,VALID,14,VALID,0.270089,
2005-11-30, 01:28:00,VALID,915.081,VALID,0,VALID,99.765,VALID,-0.101885,VALID,19.2465,VALID,14,VALID,0.0836806,
2005-11-30, 01:29:00,VALID,915.061,VALID,0,VALID,99.7447,VALID,-0.101885,VALID,19.2366,VALID,14,VALID,0.249023,
2005-11-30, 01:30:00,VALID,915.047,VALID,0,VALID,99.7637,VALID,-0.101885,VALID,19.2304,VALID,14,VALID,0.615552,
2005-11-30, 01:31:00,VALID,915.058,VALID,0,VALID,99.8566,VALID,-0.101885,VALID,19.2175,VALID,14,VALID,0.639898,
2005-11-30, 01:32:00,VALID,915.032,VALID,0,VALID,99.983,VALID,-0.0849042,VALID,19.2239,VALID,14,VALID,0.616824,
2005-11-30, 01:33:00,VALID,915.037,VALID,0,VALID,100,VALID,0,VALID,19.2227,VALID,14,VALID,0.467561,
2005-11-30, 01:34:00,VALID,915.023,VALID,0,VALID,100,VALID,0,VALID,19.2162,VALID,13,VALID,0.563689,
2005-11-30, 01:35:00,VALID,915.033,VALID,0,VALID,100,VALID,0.0679233,VALID,19.1802,VALID,349,VALID,0.34924,
2005-11-30, 01:36:00,VALID,915.022,VALID,0,VALID,100,VALID,0.0169808,VALID,19.1613,VALID,346,VALID,0.443359,
2005-11-30, 01:37:00,VALID,914.999,VALID,0,VALID,100,VALID,0.0169808,VALID,19.1516,VALID,348,VALID,0.643787,
2005-11-30, 01:38:00,VALID,914.98,VALID,0,VALID,100,VALID,0.0169808,VALID,19.1482,VALID,344,VALID,0.562309,
2005-11-30, 01:39:00,VALID,914.977,VALID,0,VALID,100,VALID,0.0169808,VALID,19.1546,VALID,348,VALID,0.519622,
2005-11-30, 01:40:00,VALID,914.985,VALID,0,VALID,100,VALID,0.0169808,VALID,19.1616,VALID,360,VALID,0.641183,
2005-11-30, 01:41:00,VALID,915.002,VALID,0,VALID,100,VALID,0.0169808,VALID,19.1576,VALID,351,VALID,0.66915,
2005-11-30, 01:42:00,VALID,915.008,VALID,0,VALID,100,VALID,0.0169808,VALID,19.1514,VALID,341,VALID,0.41654,
2005-11-30, 01:43:00,VALID,915.017,VALID,0,VALID,100,VALID,0.0679233,VALID,19.1608,VALID,346,VALID,0.364347,
2005-11-30, 01:44:00,VALID,915.015,VALID,0,VALID,100,VALID,0.0509425,VALID,19.1869,VALID,352,VALID,0.345749,
2005-11-30, 01:45:00,VALID,915.017,VALID,0,VALID,100,VALID,0.0679233,VALID,19.1768,VALID,352,VALID,0.53234,
2005-11-30, 01:46:00,VALID,914.997,VALID,0,VALID,100,VALID,0.0339617,VALID,19.1633,VALID,357,VALID,0.607469,
2005-11-30, 01:47:00,VALID,914.977,VALID,0,VALID,100,VALID,0,VALID,19.1742,VALID,4,VALID,0.623365,
2005-11-30, 01:48:00,VALID,914.97,VALID,0,VALID,100,VALID,0,VALID,19.181,VALID,334,VALID,0.710379,
2005-11-30, 01:49:00,VALID,914.945,VALID,0,VALID,100,VALID,0.0339617,VALID,19.1775,VALID,334,VALID,0.310501,
2005-11-30, 01:50:00,VALID,914.923,VALID,0,VALID,100,VALID,0,VALID,19.1971,VALID,350,VALID,0.26456,
2005-11-30, 01:51:00,VALID,914.901,VALID,0,VALID,100,VALID,0.0509425,VALID,19.2063,VALID,350,VALID,0.25625,
2005-11-30, 01:52:00,VALID,914.915,VALID,0,VALID,100,VALID,0.0339617,VALID,19.2359,VALID,350,VALID,0.0376953,
2005-11-30, 01:53:00,VALID,914.897,VALID,0,VALID,100,VALID,0.0169808,VALID,19.2677,VALID,350,VALID,0.00902778,
2005-11-30, 01:54:00,VALID,914.884,VALID,0,VALID,100,VALID,0.0339617,VALID,19.2968,VALID,351,VALID,0.332919,
2005-11-30, 01:55:00,VALID,914.869,VALID,0,VALID,100,VALID,0.0169808,VALID,19.3,VALID,5,VALID,0.556944,
2005-11-30, 01:56:00,VALID,914.882,VALID,0,VALID,100,VALID,0.0169808,VALID,19.3095,VALID,4,VALID,0.458807,
2005-11-30, 01:57:00,VALID,914.89,VALID,0,VALID,100,VALID,0,VALID,19.3065,VALID,354,VALID,0.508765,
2005-11-30, 01:58:00,VALID,914.874,VALID,0,VALID,100,VALID,0.0169808,VALID,19.2769,VALID,353,VALID,0.418501,
2005-11-30, 01:59:00,VALID,914.88,VALID,0,VALID,100,VALID,0.0169808,VALID,19.2709,VALID,3,VALID,0.603261,
2005-11-30, 02:00:00,VALID,914.882,VALID,0,VALID,100,VALID,0.0339617,VALID,19.2742,VALID,24,VALID,0.672247,
2005-11-30, 02:01:00,VALID,914.885,VALID,0,VALID,100,VALID,0.0509425,VALID,19.3032,VALID,15,VALID,0.751953,
2005-11-30, 02:02:00,VALID,914.873,VALID,0,VALID,100,VALID,0.0679233,VALID,19.2772,VALID,353,VALID,0.434659,
2005-11-30, 02:03:00,VALID,914.864,VALID,0,VALID,100,VALID,0.0509425,VALID,19.2804,VALID,359,VALID,0.455357,
2005-11-30, 02:04:00,VALID,914.841,VALID,0,VALID,100,VALID,0.0679233,VALID,19.2868,VALID,10,VALID,0.622523,
2005-11-30, 02:05:00,VALID,914.832,VALID,0,VALID,100,VALID,0.0169808,VALID,19.294,VALID,8,VALID,0.303159,
2005-11-30, 02:06:00,VALID,914.836,VALID,0,VALID,100,VALID,0,VALID,19.2804,VALID,8,VALID,0.330793,
2005-11-30, 02:07:00,VALID,914.846,VALID,0,VALID,100,VALID,0.0339617,VALID,19.2801,VALID,11,VALID,0.616824,
2005-11-30, 02:08:00,VALID,914.845,VALID,0,VALID,100,VALID,0.0339617,VALID,19.2903,VALID,11,VALID,0.529251,
2005-11-30, 02:09:00,VALID,914.84,VALID,0,VALID,100,VALID,0.0339617,VALID,19.2903,VALID,11,VALID,0.41183,
2005-11-30, 02:10:00,VALID,914.836,VALID,0,VALID,100,VALID,0.0509425,VALID,19.2938,VALID,5,VALID,0.648619,
2005-11-30, 02:11:00,VALID,914.851,VALID,0,VALID,100,VALID,0.0339617,VALID,19.2871,VALID,3,VALID,0.722147,
2005-11-30, 02:12:00,VALID,914.841,VALID,0,VALID,100,VALID,0.0339617,VALID,19.2637,VALID,4,VALID,0.716388,
2005-11-30, 02:13:00,VALID,914.839,VALID,0,VALID,100,VALID,0.101885,VALID,19.2866,VALID,349,VALID,0.684482,
2005-11-30, 02:14:00,VALID,914.843,VALID,0,VALID,100,VALID,0.0849042,VALID,19.2772,VALID,356,VALID,0.895089,
2005-11-30, 02:15:00,VALID,914.836,VALID,0,VALID,99.9201,VALID,0.0509425,VALID,19.2707,VALID,347,VALID,0.851385,
2005-11-30, 02:16:00,VALID,914.835,VALID,0,VALID,99.9578,VALID,0.0169808,VALID,19.2973,VALID,360,VALID,0.63899,
2005-11-30, 02:17:00,VALID,914.841,VALID,0,VALID,99.8614,VALID,0.0339617,VALID,19.2864,VALID,342,VALID,0.884588,
2005-11-30, 02:18:00,VALID,914.839,VALID,0,VALID,99.9262,VALID,0,VALID,19.3169,VALID,10,VALID,0.472656,
2005-11-30, 02:19:00,VALID,914.817,VALID,0,VALID,99.9288,VALID,0,VALID,19.3462,VALID,350,VALID,0.669969,
2005-11-30, 02:20:00,VALID,914.816,VALID,0,VALID,99.9504,VALID,0,VALID,19.336,VALID,356,VALID,0.504616,
2005-11-30, 02:21:00,VALID,914.812,VALID,0,VALID,100,VALID,-0.0169808,VALID,19.3554,VALID,355,VALID,0.572311,
2005-11-30, 02:22:00,VALID,914.798,VALID,0,VALID,100,VALID,0,VALID,19.3428,VALID,338,VALID,0.837612,
2005-11-30, 02:23:00,VALID,914.795,VALID,0,VALID,100,VALID,0,VALID,19.3072,VALID,356,VALID,0.821915,
2005-11-30, 02:24:00,VALID,914.798,VALID,0,VALID,100,VALID,0,VALID,19.3144,VALID,11,VALID,0.697917,
2005-11-30, 02:25:00,VALID,914.79,VALID,0,VALID,100,VALID,0.0169808,VALID,19.3137,VALID,341,VALID,0.548234,
2005-11-30, 02:26:00,VALID,914.769,VALID,0,VALID,100,VALID,0.0169808,VALID,19.3171,VALID,350,VALID,0.534624,
2005-11-30, 02:27:00,VALID,914.769,VALID,0,VALID,100,VALID,0.0169808,VALID,19.3331,VALID,11,VALID,0.634201,
2005-11-30, 02:28:00,VALID,914.759,VALID,0,VALID,100,VALID,-0.0339617,VALID,19.3234,VALID,354,VALID,0.582961,
2005-11-30, 02:29:00,VALID,914.757,VALID,0,VALID,100,VALID,0,VALID,19.307,VALID,360,VALID,0.593359,
2005-11-30, 02:30:00,VALID,914.738,VALID,0,VALID,100,VALID,0.0169808,VALID,19.2714,VALID,327,VALID,0.769436,
2005-11-30, 02:31:00,VALID,914.746,VALID,0,VALID,100,VALID,0,VALID,19.2289,VALID,328,VALID,0.750744,
2005-11-30, 02:32:00,VALID,914.735,VALID,0,VALID,100,VALID,0,VALID,19.2391,VALID,15,VALID,0.646802,
2005-11-30, 02:33:00,VALID,914.719,VALID,0,VALID,100,VALID,0,VALID,19.2717,VALID,24,VALID,0.541016,
2005-11-30, 02:34:00,VALID,914.726,VALID,0,VALID,100,VALID,-0.0169808,VALID,19.2913,VALID,6,VALID,0.454033,
2005-11-30, 02:35:00,VALID,914.73,VALID,0,VALID,100,VALID,0,VALID,19.2781,VALID,337,VALID,0.411285,
2005-11-30, 02:36:00,VALID,914.735,VALID,0,VALID,100,VALID,0,VALID,19.2843,VALID,335,VALID,0.114583,
2005-11-30, 02:37:00,VALID,914.723,VALID,0,VALID,100,VALID,0.0339617,VALID,19.3164,VALID,339,VALID,0.451882,
2005-11-30, 02:38:00,VALID,914.719,VALID,0,VALID,100,VALID,0.0169808,VALID,19.2873,VALID,337,VALID,0.98383,
2005-11-30, 02:39:00,VALID,914.714,VALID,0,VALID,100,VALID,0.0339617,VALID,19.2555,VALID,342,VALID,0.770647,
2005-11-30, 02:40:00,VALID,914.712,VALID,0,VALID,100,VALID,0.0169808,VALID,19.262,VALID,6,VALID,0.858103,
2005-11-30, 02:41:00,VALID,914.71,VALID,0,VALID,100,VALID,0.0169808,VALID,19.2848,VALID,7,VALID,0.649639,
2005-11-30, 02:42:00,VALID,914.699,VALID,0,VALID,100,VALID,0,VALID,19.3005,VALID,18,VALID,0.843936,
2005-11-30, 02:43:00,VALID,914.674,VALID,0,VALID,100,VALID,0,VALID,19.31,VALID,19,VALID,0.996185,
2005-11-30, 02:44:00,VALID,914.643,VALID,0,VALID,100,VALID,0.0169808,VALID,19.3393,VALID,21,VALID,1.34601,
2005-11-30, 02:45:00,VALID,914.622,VALID,0,VALID,100,VALID,0.0169808,VALID,19.3291,VALID,16,VALID,1.23819,
2005-11-30, 02:46:00,VALID,914.606,VALID,0,VALID,100,VALID,0.0169808,VALID,19.3328,VALID,20,VALID,1.09687,
2005-11-30, 02:47:00,VALID,914.597,VALID,0,VALID,100,VALID,0.0169808,VALID,19.3261,VALID,22,VALID,0.954078,
2005-11-30, 02:48:00,VALID,914.578,VALID,0,VALID,100,VALID,-0.0679233,VALID,19.3405,VALID,31,VALID,1.18806,
2005-11-30, 02:49:00,VALID,914.574,VALID,0,VALID,100,VALID,-0.0849042,VALID,19.3375,VALID,27,VALID,0.955915,
2005-11-30, 02:50:00,VALID,914.569,VALID,0,VALID,100,VALID,-0.101885,VALID,19.3507,VALID,19,VALID,1.02326,
2005-11-30, 02:51:00,VALID,914.579,VALID,0,VALID,100,VALID,-0.0849042,VALID,19.3243,VALID,360,VALID,0.822493,
2005-11-30, 02:52:00,VALID,914.601,VALID,0,VALID,100,VALID,-0.101885,VALID,19.302,VALID,317,VALID,0.555707,
2005-11-30, 02:53:00,VALID,914.593,VALID,0,VALID,100,VALID,-0.101885,VALID,19.299,VALID,301,VALID,0.124256,
2005-11-30, 02:54:00,VALID,914.618,VALID,0,VALID,100,VALID,-0.101885,VALID,19.3281,VALID,301,VALID,0.142223,
2005-11-30, 02:55:00,VALID,914.619,VALID,0,VALID,100,VALID,-0.101885,VALID,19.3214,VALID,301,VALID,0.00508721,
2005-11-30, 02:56:00,VALID,914.595,VALID,0,VALID,100,VALID,-0.101885,VALID,19.3114,VALID,301,VALID,0.0522017,
2005-11-30, 02:57:00,VALID,914.592,VALID,0,VALID,99.9326,VALID,-0.101885,VALID,19.3348,VALID,340,VALID,0.348292,
2005-11-30, 02:58:00,VALID,914.576,VALID,0,VALID,99.5895,VALID,-0.101885,VALID,19.3278,VALID,319,VALID,0.541726,
2005-11-30, 02:59:00,VALID,914.574,VALID,0,VALID,99.2907,VALID,-0.0339617,VALID,19.347,VALID,301,VALID,0.113459,
2005-11-30, 03:00:00,VALID,914.56,VALID,0,VALID,99.189,VALID,-0.0849042,VALID,19.3599,VALID,301,VALID,0,
2005-11-30, 03:01:00,VALID,914.551,VALID,0,VALID,99.2818,VALID,-0.0849042,VALID,19.4151,VALID,301,VALID,0.0710227,
2005-11-30, 03:02:00,VALID,914.546,VALID,0,VALID,99.3123,VALID,-0.101885,VALID,19.4342,VALID,301,VALID,0.306548,
2005-11-30, 03:03:00,VALID,914.557,VALID,0,VALID,99.4179,VALID,-0.0169808,VALID,19.4658,VALID,301,VALID,0.317073,
2005-11-30, 03:04:00,VALID,914.567,VALID,0,VALID,99.4509,VALID,0.0169808,VALID,19.475,VALID,301,VALID,0.424423,
2005-11-30, 03:05:00,VALID,914.568,VALID,0,VALID,99.4433,VALID,0,VALID,19.4524,VALID,301,VALID,0.413872,
2005-11-30, 03:06:00,VALID,914.588,VALID,0,VALID,99.6633,VALID,0.0169808,VALID,19.4399,VALID,337,VALID,0.655717,
2005-11-30, 03:07:00,VALID,914.603,VALID,0,VALID,99.9087,VALID,0.0169808,VALID,19.4263,VALID,7,VALID,0.867188,
2005-11-30, 03:08:00,VALID,914.616,VALID,0,VALID,99.998,VALID,0.0169808,VALID,19.4265,VALID,5,VALID,0.730283,
2005-11-30, 03:09:00,VALID,914.626,VALID,0,VALID,99.9868,VALID,0,VALID,19.3942,VALID,16,VALID,0.776708,
2005-11-30, 03:10:00,VALID,914.632,VALID,0,VALID,100,VALID,0,VALID,19.3781,VALID,24,VALID,1.22051,
2005-11-30, 03:11:00,VALID,914.639,VALID,0,VALID,100,VALID,0,VALID,19.3813,VALID,23,VALID,1.03706,
2005-11-30, 03:12:00,VALID,914.645,VALID,0,VALID,100,VALID,0.0169808,VALID,19.3977,VALID,25,VALID,0.865057,
2005-11-30, 03:13:00,VALID,914.642,VALID,0,VALID,100,VALID,0,VALID,19.3907,VALID,24,VALID,0.8212,
2005-11-30, 03:14:00,VALID,914.631,VALID,0,VALID,100,VALID,0,VALID,19.4069,VALID,22,VALID,0.50799,
2005-11-30, 03:15:00,VALID,914.616,VALID,0,VALID,100,VALID,0,VALID,19.4046,VALID,13,VALID,0.511433,
2005-11-30, 03:16:00,VALID,914.621,VALID,0,VALID,100,VALID,0.0169808,VALID,19.3808,VALID,356,VALID,0.163336,
2005-11-30, 03:17:00,VALID,914.613,VALID,0.2,VALID,100,VALID,0.0339617,VALID,19.381,VALID,289,VALID,0.185404,
2005-11-30, 03:18:01,VALID,914.608,VALID,0,VALID,100,VALID,-0.0509425,VALID,19.3686,VALID,196,VALID,0.0848474,
2005-11-30, 03:19:00,VALID,914.599,VALID,0,VALID,100,VALID,-0.101885,VALID,19.3663,VALID,196,VALID,0.532703,
2005-11-30, 03:20:00,VALID,914.587,VALID,0,VALID,100,VALID,-0.101885,VALID,19.3592,VALID,196,VALID,0.447545,
2005-11-30, 03:21:00,VALID,914.575,VALID,0,VALID,100,VALID,-0.0849042,VALID,19.3532,VALID,23,VALID,0.739984,
2005-11-30, 03:22:00,VALID,914.559,VALID,0,VALID,100,VALID,-0.101885,VALID,19.3499,VALID,27,VALID,0.976563,
2005-11-30, 03:23:00,VALID,914.536,VALID,0,VALID,100,VALID,-0.0679233,VALID,19.3659,VALID,27,VALID,0.919922,
2005-11-30, 03:24:00,VALID,914.528,VALID,0,VALID,100,VALID,-0.0509425,VALID,19.3626,VALID,24,VALID,0.911458,
2005-11-30, 03:25:00,VALID,914.526,VALID,0,VALID,100,VALID,-0.0679233,VALID,19.3751,VALID,17,VALID,0.704901,
2005-11-30, 03:26:00,VALID,914.534,VALID,0,VALID,100,VALID,-0.0679233,VALID,19.3984,VALID,21,VALID,0.759943,
2005-11-30, 03:27:00,VALID,914.538,VALID,0,VALID,100,VALID,-0.0679233,VALID,19.3949,VALID,27,VALID,0.56343,
2005-11-30, 03:28:00,VALID,914.55,VALID,0,VALID,100,VALID,-0.101885,VALID,19.4021,VALID,26,VALID,0.0288881,
2005-11-30, 03:29:00,VALID,914.543,VALID,0,VALID,100,VALID,-0.101885,VALID,19.3691,VALID,26,VALID,0.28125,
2005-11-30, 03:30:00,VALID,914.559,VALID,0,VALID,100,VALID,-0.0849042,VALID,19.3592,VALID,25,VALID,0.336846,
2005-11-30, 03:31:00,VALID,914.583,VALID,0,VALID,100,VALID,-0.101885,VALID,19.3532,VALID,24,VALID,0.331854,
2005-11-30, 03:32:00,VALID,914.582,VALID,0,VALID,100,VALID,-0.101885,VALID,19.3596,VALID,26,VALID,0.530523,
2005-11-30, 03:33:00,VALID,914.589,VALID,0,VALID,100,VALID,0.0509425,VALID,19.354,VALID,26,VALID,0.121007,
2005-11-30, 03:34:01,VALID,914.601,VALID,0,VALID,100,VALID,0.0679233,VALID,19.3478,VALID,26,VALID,0.0101744,
2005-11-30, 03:35:01,VALID,914.619,VALID,0,VALID,100,VALID,0,VALID,19.3353,VALID,26,VALID,0,
2005-11-30, 03:36:01,VALID,914.626,VALID,0,VALID,100,VALID,0.0679233,VALID,19.3318,VALID,26,VALID,0.0502232,
2005-11-30, 03:37:00,VALID,914.625,VALID,0,VALID,100,VALID,0.0679233,VALID,19.3383,VALID,39,VALID,0.0770597,
2005-11-30, 03:38:00,VALID,914.604,VALID,0,VALID,100,VALID,0.101885,VALID,19.3353,VALID,56,VALID,0.492733,
2005-11-30, 03:39:01,VALID,914.619,VALID,0,VALID,100,VALID,0.0339617,VALID,19.3284,VALID,2,VALID,0.574855,
2005-11-30, 03:40:00,VALID,914.626,VALID,0,VALID,100,VALID,0.0679233,VALID,19.3221,VALID,350,VALID,0.180715,
2005-11-30, 03:41:00,VALID,914.642,VALID,0,VALID,100,VALID,0.0509425,VALID,19.3286,VALID,351,VALID,0.157493,